SPHOSPHY

Guest
Details From SPHO - Coronel Fap Alfredo Mendivil Duarte
To SPHY - Andahuaylas
Flight Number -
Tags Generated
Created
Modified
Stats Distance 60 nm / 111 km
Max Altitude 0 ft / 0 m
Waypoints 2
Social Downloads 1
Likes 0
Share VATSIM

Download

Looking for another format? Having issues loading an existing format? Contact us
Advertisement - Login to hide

Notes

Generated

Route

SPHO SPHY

ID Type Via Altitude Latitude Longitude Leg Dist Tot Dist Heading (true) Name
O SPHO APT - 0 ft / 0 m -13.16653˚ -74.20936˚ - 0 nm - -
O SPHY APT - 0 ft / 0 m -13.71621˚ -73.35659˚ 59 nm 59 nm 124° / 123° -

Altitude Profile

Advertisement - Login to hide

SPHO

Details ICAO SPHO (AYP)
Name CORONEL FAP ALFREDO MENDIVIL DUARTE
Region Peru
Timezone America/Lima (UTC-5.0)
Stats Elevation 8,917 ft / 2,718 m (AMSL)
Location -13.154820° -74.204416°
Runways 1
Magnetic Variation 3.871° W

METAR

SPHO 241200Z 00000KT 9999 FEW080 11/07 Q1031 RMK TN10.1 PP000

Decode

TAF

SPHO 241110Z 2412/2512 VRB03KT 9999 FEW040 TX26/2419Z TN08/2511Z TEMPO 2417/2420 24010KT TEMPO 2420/2423 06010KT FEW040 SCT080

Decode

Departure Runways

ID Width Length Bearing (true) Bearing (mag) Surface Threshold Offset Overrun Length
02 148 ft / 45 m 9,239 ft / 2,816 m 22.35° 26.22° Asphalt 0 ft / 0 m 0 ft / 0 m
20 148 ft / 45 m 9,239 ft / 2,816 m 202.35° 206.22° Asphalt 0 ft / 0 m 100 ft / 30 m

SPHY

Details ICAO SPHY (ANS)
Name ANDAHUAYLAS
Region Peru
Timezone America/Lima (UTC-5.0)
Stats Elevation 11,300 ft / 3,444 m (AMSL)
Location -13.706410° -73.350376°
Runways 1
Magnetic Variation 4.417° W

METAR

SPHY 241200Z /////KT 6000 BCFG SCT020 BKN040 04/M03 Q1037 RMK TNM 1.0 PP000

Decode

TAF

SPHY 241110Z 2412/2512 36005KT 9999 FEW020 SCT040 TX18/2419Z TNM02/2511Z BECMG 2413/2415 CAVOK TEMPO 2417/2420 36015KT BECMG 2505/2508 00000KT

Decode

Destination Runways

ID Width Length Bearing (true) Bearing (mag) Surface Threshold Offset Overrun Length
03 98 ft / 30 m 8,397 ft / 2,560 m 31.64° 36.06° Asphalt 0 ft / 0 m 250 ft / 76 m
21 98 ft / 30 m 8,397 ft / 2,560 m 211.64° 216.06° Asphalt 0 ft / 0 m 200 ft / 61 m